Shannon, Ireland

1:04 AM IST on July 23, 2017 (GMT +0100)
Shannon

Weather History for EINN - April, 2013

Change the Weather History Date:

Thursday, April 4, 2013

  Actual Average Record
Temperature  
Mean Temperature 38 °F -  
Max Temperature 49 °F 56 °F 59 °F (1999)
Min Temperature 26 °F 42 °F 26 °F (2013)
Degree Days  
Heating Degree Days 28    
Moisture  
Dew Point 24 °F    
Average Humidity 55    
Maximum Humidity 86    
Minimum Humidity 24    
Precipitation  
Precipitation 0.00 in 0.07 in - ()
Sea Level Pressure  
Sea Level Pressure 30.19 in    
Wind  
Wind Speed 11 mph ()    
Max Wind Speed 18 mph    
Max Gust Speed -    
Visibility 6.8 miles    
Events      
Averages and records for this station are not official NWS values.
T = Trace of Precipitation, MM = Missing Value Source: Averaged Metar Reports

Daily Weather History Graph

Daily Weather History Graph

Search for Another Location

Airport or City:

Trip Planner

Search our weather history database for the weather conditions in past years. The results will help you decide how hot, cold, wet, or windy it might be!

Date:

Astronomy

Apr. 04, 2013 Rise Set
Actual Time 7:02 AM IST 8:15 PM IST
Civil Twilight 6:27 AM IST 8:51 PM IST
Nautical Twilight 5:44 AM IST 9:34 PM IST
Astronomical Twilight 4:58 AM IST 10:20 PM IST
Moon 4:05 AM IST (4/4) 1:35 PM IST (4/4)
Length of Visible Light 14h 23m
Length of Day
13h 13m
Last Quarter, 36% of the Moon is Illuminated
Apr 4
Last Quarter
Apr 10
New
Apr 18
First Quarter
Apr 25
Full
May 2
Last Quarter

Hourly Weather History & Observations

Time (IST) Temp. Windchill Dew Point Humidity Pressure Visibility Wind Dir Wind Speed Gust Speed Precip Events Conditions
12:00 AM 33.8 °F 25.8 °F 24.8 °F 70% 30.18 in - NE 10.4 mph - N/A   Clear
12:30 AM 33.8 °F 25.8 °F 24.8 °F 70% 30.18 in - NE 10.4 mph - N/A   Clear
1:00 AM 35 °F - 24 °F 53% 30.22 in 12 mi NNE 11.2 mph - -  
1:00 AM 35.6 °F 28.0 °F 24.8 °F 65% 30.21 in - NNE 10.4 mph - N/A   Clear
1:30 AM 33.8 °F 26.4 °F 23.0 °F 65% 30.21 in - NNE 9.2 mph - N/A   Clear
2:00 AM 35.6 °F 28.0 °F 23.0 °F 60% 30.21 in - NNE 10.4 mph - N/A   Clear
2:30 AM 35.6 °F 27.5 °F 23.0 °F 60% 30.21 in - NNE 11.5 mph - N/A   Clear
3:00 AM 33.8 °F 25.8 °F 23.0 °F 65% 30.18 in - NNE 10.4 mph - N/A   Clear
3:30 AM 33.8 °F 26.4 °F 23.0 °F 65% 30.18 in - NNE 9.2 mph - N/A   Clear
4:00 AM 32.0 °F 24.2 °F 23.0 °F 69% 30.18 in - NNE 9.2 mph - N/A   Clear
4:30 AM 33.8 °F 25.3 °F 23.0 °F 65% 30.18 in - NNE 11.5 mph - N/A   Clear
5:00 AM 33.8 °F 25.3 °F 23.0 °F 65% 30.18 in - NNE 11.5 mph - N/A   Clear
5:30 AM 32.0 °F 23.6 °F 23.0 °F 69% 30.18 in - NNE 10.4 mph - N/A   Clear
6:00 AM 30.2 °F 21.9 °F 23.0 °F 75% 30.18 in - NNE 9.2 mph - N/A   Clear
6:30 AM 30.2 °F 21.9 °F 23.0 °F 75% 30.18 in - North 9.2 mph - N/A   Clear
7:00 AM 27 °F - 22 °F 74% 30.22 in 16 mi North 8.9 mph - -   Scattered Clouds
7:00 AM 26.6 °F 17.5 °F 21.2 °F 80% 30.21 in - North 9.2 mph - N/A   Clear
7:30 AM 26.6 °F 16.8 °F 23.0 °F 86% 30.21 in - North 10.4 mph - N/A   Clear
8:00 AM 28.4 °F 19.7 °F 23.0 °F 80% 30.21 in - North 9.2 mph - N/A   Clear
8:30 AM 32.0 °F 25.6 °F 24.8 °F 75% 30.21 in - North 6.9 mph - N/A   Clear
9:00 AM 35.6 °F 27.5 °F 26.6 °F 70% 30.21 in - NNE 11.5 mph - N/A   Clear
9:30 AM 37.4 °F 29.3 °F 28.4 °F 70% 30.21 in 6.2 mi NNE 12.7 mph - N/A   Partly Cloudy
10:00 AM 39.2 °F 32.0 °F 28.4 °F 65% 30.21 in 6.2 mi NNE 11.5 mph - N/A   Partly Cloudy
10:30 AM 41.0 °F 33.5 °F 30.2 °F 65% 30.21 in 6.2 mi NE 13.8 mph - N/A   Partly Cloudy
11:00 AM 41.0 °F 33.5 °F 30.2 °F 65% 30.21 in 6.2 mi NE 13.8 mph - N/A   Partly Cloudy
11:30 AM 42.8 °F 35.1 °F 28.4 °F 57% 30.21 in 6.2 mi NE 16.1 mph - N/A   Scattered Clouds
12:00 PM 42.8 °F 34.8 °F 26.6 °F 53% 30.18 in 6.2 mi NE 17.3 mph - N/A   Partly Cloudy
12:30 PM 44.6 °F 38.1 °F 23.0 °F 43% 30.21 in 6.2 mi NE 13.8 mph - N/A   Partly Cloudy
1:00 PM 45 °F - 25 °F 32% 30.21 in 31 mi NNE 17.9 mph - -   Scattered Clouds
1:00 PM 44.6 °F 37.2 °F 24.8 °F 46% 30.18 in 6.2 mi NNE 17.3 mph - N/A   Partly Cloudy
1:30 PM 46.4 °F 40.4 °F 23.0 °F 40% 30.18 in 6.2 mi NE 13.8 mph - N/A   Partly Cloudy
2:00 PM 46.4 °F 40.4 °F 21.2 °F 37% 30.18 in 6.2 mi NNE 13.8 mph - N/A   Partly Cloudy
2:30 PM 46.4 °F 39.2 °F 21.2 °F 37% 30.18 in 6.2 mi NE 18.4 mph - N/A   Partly Cloudy
3:00 PM 48.2 °F - 21.2 °F 34% 30.15 in 6.2 mi ENE 16.1 mph - N/A   Partly Cloudy
3:30 PM 48.2 °F - 23.0 °F 37% 30.15 in 6.2 mi ENE 15.0 mph - N/A   Partly Cloudy
4:00 PM 50.0 °F - 23.0 °F 35% 30.15 in 6.2 mi NE 16.1 mph - N/A   Partly Cloudy
4:30 PM 48.2 °F - 21.2 °F 34% 30.15 in 6.2 mi ENE 13.8 mph - N/A   Partly Cloudy
5:00 PM 50.0 °F - 23.0 °F 35% 30.15 in 6.2 mi NE 16.1 mph - N/A   Partly Cloudy
5:30 PM 48.2 °F - 21.2 °F 34% 30.15 in 6.2 mi ENE 16.1 mph - N/A   Partly Cloudy
6:00 PM 48.2 °F - 21.2 °F 34% 30.15 in 6.2 mi NE 16.1 mph - N/A   Partly Cloudy
6:30 PM 48.2 °F - 21.2 °F 34% 30.15 in 6.2 mi ENE 16.1 mph - N/A   Partly Cloudy
7:00 PM 48 °F - 23 °F 24% 30.17 in 37 mi NE 13.4 mph - -   Scattered Clouds
7:00 PM 48.2 °F - 23.0 °F 37% 30.15 in 6.2 mi NE 13.8 mph - N/A   Partly Cloudy
7:30 PM 46.4 °F 40.1 °F 24.8 °F 43% 30.15 in 6.2 mi ENE 15.0 mph - N/A   Partly Cloudy
8:00 PM 44.6 °F 38.4 °F 23.0 °F 43% 30.18 in 6.2 mi ENE 12.7 mph - N/A   Partly Cloudy
8:30 PM 42.8 °F 36.6 °F 23.0 °F 46% 30.18 in 6.2 mi ENE 11.5 mph - N/A   Partly Cloudy
9:00 PM 42.8 °F 37.0 °F 23.0 °F 46% 30.21 in 6.2 mi ENE 10.4 mph - N/A   Partly Cloudy
9:30 PM 41.0 °F 35.8 °F 23.0 °F 49% 30.21 in 6.2 mi ENE 8.1 mph - N/A   Partly Cloudy
10:00 PM 39.2 °F 33.0 °F 28.4 °F 65% 30.21 in - ENE 9.2 mph - N/A   Clear
10:30 PM 39.2 °F 35.0 °F 23.0 °F 52% 30.21 in - ENE 5.8 mph - N/A   Clear
11:00 PM 37.4 °F 32.1 °F 23.0 °F 56% 30.21 in - NE 6.9 mph - N/A   Clear
11:30 PM 33.8 °F 28.6 °F 23.0 °F 65% 30.21 in - NE 5.8 mph - N/A   Clear